[[{"header":{"parameterUnit":"m.s-1","parameterCategory":1,"la1":30.2991,"la2":30.254,"lo1":-89.0895,"lo2":-89.0444,"dy":0.0017,"dx":0.0017,"nx":28,"ny":28,"refTime":"2023-07-20T09:00:00:Z","depth":0,"parameterNumber":2,"parameterNumberName":"U-component_of_WINDS"},"data":[0,0,0,0,0,0,0,0,0,0,0,0,0,0,0,0,0,0,0,0,0,0,0,0,0,0,0,0,0,0,0,0,0,0,0,0,0,0,0,0,0,0,0,0,0,0,0,0,0,0,0,0,0,0,0,0,0,0,2.2009,2.201,0,2.2091,2.2092,2.2093,2.2065,2.2063,2.2061,2.2059,2.2147,2.215,2.2154,0,0,0,0,0,0,0,0,0,0,0,0,0,2.1827,2.1831,2.2009,2.201,2.2011,2.2091,2.2092,2.2093,2.2065,2.2063,2.2061,2.2059,2.2145,2.215,2.2155,0,0,0,0,0,0,0,0,0,0,0,0,0,2.1908,2.1832,2.2009,2.2006,2.2007,2.2091,2.2092,2.2094,2.2066,2.2063,2.206,2.2057,2.2144,2.215,2.2156,2.2247,0,0,2.2174,2.2177,0,0,0,0,0,0,0,0,2.1903,2.1914,2.2006,2.2007,2.2008,2.2065,2.206,2.2145,2.2066,2.2043,2.2059,2.2056,2.2122,2.2129,2.2151,2.2252,2.2255,2.2174,2.2178,2.2181,2.2182,0,0,0,0,0,0,0,2.1898,2.1911,2.2042,2.2007,2.2008,2.2001,2.201,2.2076,2.2097,2.2045,2.2043,2.2053,2.2122,2.2145,2.2153,2.2257,2.2174,2.218,2.2183,2.2186,2.2433,2.2436,0,0,0,0,0,0,2.1891,2.1906,2.2039,2.2044,2.1947,2.2007,2.2016,2.2049,2.2096,2.2101,2.2056,2.2052,2.2136,2.2146,2.2156,2.2264,2.2181,2.2186,2.219,2.243,2.2433,2.2437,0,0,0,0,0,0,2.1888,2.1904,2.2036,2.1975,2.1991,2.2013,2.205,2.2052,2.2076,2.2104,2.2108,2.2076,2.2135,2.2147,2.2224,2.2267,2.2189,2.2195,2.2426,2.2431,2.2435,2.2483,0,0,0,0,0,0,2.1883,2.1902,2.1938,2.1976,2.1994,2.2103,2.2053,2.2056,2.2086,2.2082,2.2124,2.2128,2.2133,2.2215,2.223,2.2274,2.2199,2.2423,2.2428,2.2434,2.2477,2.2488,2.2497,0,0,0,0,0,2.1876,2.195,2.194,2.1956,2.2039,2.2105,2.2116,2.2119,2.209,2.2125,2.2142,2.2127,2.226,2.2223,2.224,2.2286,2.242,2.2427,2.2433,2.2473,2.2486,2.2497,0,0,0,0,0,0,2.1918,2.1955,2.1944,2.2032,2.2065,2.21,2.2145,2.2134,2.2177,2.2172,2.2175,2.2185,2.2262,2.2282,2.2241,2.2375,2.2335,2.2346,2.236,2.2373,2.2382,2.2376,2.2204,0,0,0,0,0,2.1937,2.1988,2.2017,2.2091,2.2108,2.2124,2.2153,2.2152,2.2187,2.2202,2.2225,2.226,2.2309,2.2342,2.239,2.248,2.2487,2.252,2.253,2.2538,2.2546,2.2593,2.2606,2.2458,2.2458,2.2458,0,0,2.1978,2.2004,2.2036,2.21,2.2126,2.2177,2.2136,2.2193,2.2231,2.2211,2.2283,2.2302,2.2341,2.2424,2.2462,2.2443,2.2589,2.2546,2.2552,2.2557,2.2601,2.2615,2.2627,2.2463,2.2462,2.2461,0,0,2.2078,2.2104,2.2167,2.2193,2.2231,2.2241,2.2256,2.2291,2.2302,2.2374,2.2359,2.2405,2.249,2.2518,2.2543,2.2649,2.2636,2.2665,2.2717,2.2762,2.2774,2.2784,2.282,2.2833,2.2673,2.2674,2.2674,0,2.2124,2.2201,2.2201,2.2258,2.2286,2.2268,2.2331,2.2356,2.2409,2.2428,2.2406,2.251,2.2536,2.2623,2.2649,2.2671,2.2687,2.266,2.2772,2.2782,2.2792,2.2826,2.284,2.2677,2.2676,2.2676,2.2676,0,2.2254,2.2307,2.2354,2.2402,2.2435,2.2496,2.2504,2.2538,2.2533,2.2544,2.2617,2.2646,2.2698,2.2718,2.2716,2.2805,2.2791,2.2771,2.273,2.2809,2.2841,2.2855,2.2681,2.268,2.2679,2.2678,0,0,2.2386,2.2431,2.2448,2.2468,2.2507,2.2548,2.2607,2.2655,2.2682,2.2719,2.2767,2.2837,2.2817,2.2846,2.2846,2.2885,2.2964,2.2859,2.286,2.2876,2.3061,2.3076,2.3091,2.2956,2.2958,2.296,2.3057,0,2.2487,2.2588,2.2589,2.2682,2.2729,2.2711,2.2761,2.279,2.2802,2.2844,2.2857,2.2906,2.2876,2.2893,2.2931,2.2947,2.3002,2.294,2.3,2.3002,2.2989,2.3109,2.3125,2.3216,2.307,2.3072,2.3074,0,2.2621,2.2658,2.2755,2.2784,2.2804,2.2849,2.2892,2.2932,2.2964,2.297,2.3,2.2993,2.3051,2.3008,2.3088,2.3046,2.307,2.3081,2.3085,2.309,2.3042,2.3116,2.3245,2.3258,2.3094,2.3093,2.3091,0,2.2704,2.2779,2.2846,2.2864,2.29,2.2932,2.2949,2.2978,2.3006,2.3043,2.306,2.3105,2.3129,2.3163,2.3168,2.3137,2.3247,2.3206,2.3252,2.3252,2.3276,2.3274,2.341,2.3294,2.3293,2.3293,2.3293,0,2.2817,2.2877,2.2883,2.2924,2.299,2.2989,2.3054,2.3068,2.3093,2.3136,2.3124,2.3164,2.3168,2.321,2.3215,2.3278,2.329,2.3295,2.3295,2.3296,2.3295,2.3311,2.3305,2.3297,2.3296,2.3295,2.3295,0,2.2922,2.2928,2.2999,2.3027,2.3035,2.3082,2.3105,2.3143,2.3152,2.3206,2.3219,2.3233,2.3281,2.3289,2.3347,2.3349,2.3425,2.3419,2.3414,2.3412,2.3458,2.3453,2.3608,2.3627,2.35,2.3501,2.3502,0,2.2993,2.3038,2.3069,2.3095,2.3113,2.3157,2.3184,2.3185,2.3214,2.3251,2.3285,2.3331,2.3368,2.3446,2.3461,2.3504,2.3499,2.355,2.3506,2.3503,2.3498,2.3495,2.3498,2.3559,2.356,2.3561,2.3562,0,2.3118,2.3118,2.3158,2.3197,2.3229,2.3261,2.3291,2.3314,2.3317,2.335,2.3398,2.3427,2.3483,2.3529,2.3571,2.3588,2.3576,2.3576,2.3589,2.3589,2.3583,2.3585,2.3436,2.3573,2.3572,2.3571,2.357,2.357,2.3208,2.3245,2.3271,2.3315,2.3336,2.3363,2.34,2.3412,2.3451,2.3496,2.3494,2.3546,2.3574,2.3628,2.3648,2.3689,2.3672,2.3691,2.3696,2.37,2.3703,2.3577,2.3697,2.3696,2.3696,2.3696,2.3696,0,2.333,2.3345,2.3385,2.3425,2.3459,2.3442,2.3473,2.3503,2.3548,2.3574,2.361,2.3663,2.3707,2.3724,2.3766,2.3795,2.379,2.3806,2.3804,2.3807,2.3717,2.3701,2.3809,2.3809,2.3809,2.3809,2.3809,2.3809,2.3398,2.346,2.3463,2.3534,2.3549,2.3599,2.3617,2.3642,2.3663,2.3722,2.3757,2.3767,2.379,2.3833,2.3871,2.3875,2.3891,2.3909,2.3911,2.3826,2.3814,2.3803,2.3788,2.3913,2.3913,2.3997,2.3998,2.3999]},{"header":{"parameterUnit":"m.s-1","parameterCategory":1,"la1":30.2991,"la2":30.254,"lo1":-89.0895,"lo2":-89.0444,"dy":0.0017,"dx":0.0017,"nx":28,"ny":28,"refTime":"2023-07-20T09:00:00:Z","depth":0,"parameterNumber":3,"parameterNumberName":"V-component_of_WINDS"},"data":[0,0,0,0,0,0,0,0,0,0,0,0,0,0,0,0,0,0,0,0,0,0,0,0,0,0,0,0,0,0,0,0,0,0,0,0,0,0,0,0,0,0,0,0,0,0,0,0,0,0,0,0,0,0,0,0,0,0,6.3368,6.3369,0,6.3408,6.3409,6.3409,6.3323,6.3321,6.3318,6.3315,6.335,6.3354,6.3357,0,0,0,0,0,0,0,0,0,0,0,0,0,6.3212,6.3215,6.3368,6.3369,6.3369,6.3408,6.3409,6.3409,6.3324,6.3321,6.3317,6.3314,6.3349,6.3353,6.3358,0,0,0,0,0,0,0,0,0,0,0,0,0,6.3268,6.3216,6.3368,6.3332,6.3329,6.3408,6.3409,6.3409,6.3325,6.3321,6.3316,6.3313,6.3348,6.3353,6.3358,6.3473,0,0,6.3374,6.3376,0,0,0,0,0,0,0,0,6.3265,6.3274,6.3337,6.3334,6.3331,6.3357,6.3366,6.3431,6.3326,6.3326,6.3315,6.3311,6.3355,6.336,6.3376,6.3475,6.3476,6.3375,6.3378,6.338,6.3382,0,0,0,0,0,0,0,6.3261,6.3272,6.3384,6.3338,6.3334,6.3311,6.3314,6.3378,6.3363,6.3326,6.332,6.3326,6.3353,6.3371,6.3376,6.3477,6.3374,6.3379,6.3382,6.3384,6.3669,6.3673,0,0,0,0,0,0,6.3263,6.3269,6.3383,6.3385,6.3288,6.3317,6.3321,6.3353,6.3362,6.336,6.3329,6.3322,6.3364,6.337,6.3377,6.3511,6.338,6.3385,6.3388,6.3665,6.367,6.3675,0,0,0,0,0,0,6.326,6.3274,6.3381,6.3326,6.3337,6.3324,6.336,6.3356,6.3374,6.3365,6.3361,6.3351,6.3361,6.337,6.345,6.3511,6.3387,6.3392,6.366,6.3666,6.3673,6.378,0,0,0,0,0,0,6.3256,6.3273,6.3319,6.3327,6.3341,6.3455,6.3364,6.3359,6.3384,6.3374,6.3385,6.3382,6.3359,6.3442,6.3455,6.3516,6.3396,6.3654,6.3663,6.367,6.3771,6.379,6.3806,0,0,0,0,0,6.3251,6.3346,6.3321,6.3335,6.3397,6.3459,6.3466,6.3439,6.3389,6.3433,6.3427,6.3382,6.3503,6.3451,6.3465,6.3528,6.365,6.366,6.367,6.3763,6.3786,6.3805,0,0,0,0,0,0,6.3343,6.3347,6.3319,6.3421,6.3441,6.3445,6.3499,6.3464,6.3497,6.3486,6.3449,6.3452,6.3539,6.3541,6.3484,6.3639,6.3567,6.3581,6.3634,6.3655,6.3672,6.3669,6.34,0,0,0,0,0,6.3376,6.3428,6.3427,6.3517,6.3529,6.3513,6.3538,6.3516,6.3534,6.3541,6.3541,6.3558,6.36,6.3628,6.3666,6.3772,6.3771,6.3821,6.3839,6.3853,6.3864,6.3918,6.394,6.3708,6.3708,6.3707,0,0,6.3443,6.3451,6.3486,6.3536,6.3548,6.3601,6.352,6.3579,6.3616,6.3549,6.3625,6.3626,6.3642,6.3735,6.3776,6.374,6.3929,6.3866,6.3877,6.388,6.3931,6.3953,6.3972,6.3714,6.3713,6.3712,0,0,6.3592,6.3605,6.368,6.3695,6.3715,6.3704,6.3722,6.3731,6.373,6.3806,6.3756,6.3799,6.3872,6.3886,6.3902,6.4056,6.4014,6.4069,6.4158,6.4212,6.423,6.4246,6.4299,6.4319,6.4081,6.4081,6.4081,0,6.3672,6.3751,6.3723,6.3785,6.3808,6.3751,6.3826,6.384,6.3872,6.3887,6.3847,6.3937,6.3944,6.4039,6.4076,6.4092,6.411,6.4067,6.423,6.4246,6.426,6.431,6.433,6.4087,6.4087,6.4086,6.4085,0,6.3847,6.3903,6.3961,6.3994,6.4023,6.4092,6.4072,6.4104,6.4079,6.4071,6.4148,6.4155,6.4193,6.4214,6.4189,6.4305,6.4281,6.4237,6.4164,6.4289,6.4335,6.4355,6.4096,6.4094,6.4092,6.4091,0,0,6.4055,6.4072,6.4094,6.4107,6.4126,6.4167,6.4232,6.427,6.4298,6.4321,6.4373,6.4436,6.4395,6.4413,6.439,6.4437,6.4556,6.4386,6.4385,6.4416,6.4681,6.4713,6.4736,6.453,6.4533,6.4536,6.4679,0,6.42,6.4314,6.429,6.4401,6.445,6.4397,6.4453,6.4469,6.4464,6.4503,6.4496,6.4541,6.4484,6.4494,6.4539,6.4532,6.4609,6.4522,6.4575,6.4577,6.4571,6.4761,6.4795,6.493,6.4697,6.47,6.4702,0,6.4386,6.4418,6.4534,6.4543,6.4563,6.4614,6.4647,6.4686,6.4703,6.4695,6.4717,6.4684,6.4746,6.4674,6.4757,6.4699,6.4719,6.472,6.4724,6.4726,6.4646,6.4766,6.4972,6.4992,6.4731,6.4729,6.4727,0,6.4523,6.4595,6.4673,6.4686,6.47,6.4737,6.4744,6.4757,6.4781,6.4809,6.4824,6.4859,6.4878,6.4904,6.4881,6.4831,6.4968,6.4894,6.4961,6.4962,6.499,6.4989,6.5201,6.5007,6.5007,6.5007,6.5006,0,6.4687,6.4759,6.4734,6.4782,6.4861,6.4833,6.4911,6.4911,6.4923,6.4968,6.4925,6.4967,6.4935,6.4975,6.4957,6.5028,6.5037,6.5031,6.5025,6.5034,6.5035,6.5045,6.5035,6.5012,6.5011,6.501,6.5009,0,6.4852,6.4839,6.492,6.4927,6.4931,6.4988,6.4993,6.5036,6.5028,6.5086,6.5097,6.5084,6.5128,6.5108,6.5155,6.5143,6.5233,6.5216,6.5228,6.5223,6.529,6.5283,6.5515,6.5543,6.5333,6.5336,6.5337,0,6.4957,6.5011,6.5025,6.5053,6.5063,6.5109,6.5134,6.5108,6.5135,6.5158,6.5198,6.524,6.5271,6.5344,6.5337,6.5372,6.5354,6.5433,6.5358,6.5365,6.5352,6.5349,6.5353,6.5447,6.5449,6.5451,6.5453,0,6.5143,6.5134,6.5173,6.521,6.5241,6.5268,6.5291,6.5316,6.5291,6.5323,6.5369,6.5394,6.5442,6.5482,6.5513,6.5518,6.5481,6.5477,6.5493,6.5502,6.5506,6.5503,6.5266,6.5471,6.5469,6.5468,6.5467,6.5466,6.528,6.5325,6.5342,6.5386,6.5401,6.5424,6.5464,6.5462,6.55,6.5538,6.552,6.5573,6.5587,6.5624,6.5634,6.5674,6.5642,6.5667,6.5673,6.5679,6.5688,6.5502,6.5679,6.5679,6.5678,6.5678,6.5678,0,6.5462,6.547,6.5512,6.5546,6.558,6.5545,6.5568,6.5599,6.5646,6.5663,6.5696,6.5748,6.5787,6.5784,6.5819,6.5851,6.5835,6.5861,6.5857,6.5859,6.5715,6.5696,6.5874,6.5874,6.5874,6.5874,6.5874,6.5874,6.5561,6.5636,6.5628,6.5709,6.5716,6.5769,6.5785,6.5805,6.5818,6.5879,6.5912,6.591,6.5918,6.5954,6.5988,6.5986,6.6,6.6032,6.6024,6.5889,6.5869,6.585,6.5832,6.6036,6.6036,6.6164,6.6165,6.6166]}]]